• In Deutschland
  • Länderverzeichnis
  • Für 7 Tage
  • Wassertemperatur
  • Satellitenkarten
  • Wetterkarte
  • Widgets
  • user-avatar
    Anmelden

    Stündliche Wetter Durres

    Heute, 16 Januar, Dienstag

    Zeit Temperatur Niederschläge Wind Luftdruck Luftfeuchtigkeit
    00:00 +8°C° 0,4 mm 2 m/S 764 mmHg 92%
    01:00 +8°C° 0 mm 2 m/S 764 mmHg 93%
    02:00 +8°C° 0,4 mm 2 m/S 764 mmHg 93%
    03:00 +8°C° 0,4 mm 2 m/S 763 mmHg 93%
    04:00 +8°C° 0,4 mm 2 m/S 763 mmHg 93%
    05:00 +8°C° 0,4 mm 3 m/S 763 mmHg 93%
    06:00 +8°C° 0,4 mm 3 m/S 763 mmHg 93%
    07:00 +7°C° 0,4 mm 4 m/S 762 mmHg 93%
    08:00 +8°C° 0,4 mm 4 m/S 762 mmHg 89%
    09:00 +9°C° 0,4 mm 5 m/S 762 mmHg 86%
    10:00 +10°C° 0,4 mm 6 m/S 762 mmHg 82%
    11:00 +10°C° 0,4 mm 6 m/S 761 mmHg 79%
    12:00 +11°C° 0,4 mm 7 m/S 761 mmHg 76%
    13:00 +11°C° 0,4 mm 7 m/S 760 mmHg 73%
    14:00 +11°C° 0,3 mm 7 m/S 760 mmHg 75%
    15:00 +10°C° 0,3 mm 6 m/S 759 mmHg 78%
    16:00 +10°C° 0,3 mm 6 m/S 759 mmHg 81%
    17:00 +9°C° 0,3 mm 6 m/S 759 mmHg 84%
    18:00 +9°C° 0,3 mm 6 m/S 759 mmHg 87%
    19:00 +9°C° 0,3 mm 7 m/S 758 mmHg 90%
    20:00 +9°C° 0,2 mm 7 m/S 758 mmHg 90%
    21:00 +9°C° 0,2 mm 7 m/S 758 mmHg 89%
    22:00 +9°C° 0,2 mm 7 m/S 758 mmHg 89%
    23:00 +9°C° 0,2 mm 7 m/S 758 mmHg 89%

    Morgen, 17 Januar, Mittwoch

    Zeit Temperatur Niederschläge Wind Luftdruck Luftfeuchtigkeit
    00:00 +9°C° 0,2 mm 7 m/S 758 mmHg 89%
    01:00 +9°C° 0,2 mm 7 m/S 757 mmHg 89%
    02:00 +9°C° 0,2 mm 8 m/S 757 mmHg 89%
    03:00 +9°C° 0,2 mm 8 m/S 756 mmHg 88%
    04:00 +8°C° 0,2 mm 9 m/S 755 mmHg 88%
    05:00 +10°C° 0,4 mm 9 m/S 755 mmHg 88%
    06:00 +9°C° 0,4 mm 10 m/S 755 mmHg 88%
    07:00 +9°C° 0,4 mm 11 m/S 754 mmHg 87%
    08:00 +11°C° 0,5 mm 11 m/S 753 mmHg 87%
    09:00 +11°C° 0,5 mm 11 m/S 753 mmHg 86%
    10:00 +12°C° 0,5 mm 11 m/S 752 mmHg 85%
    11:00 +12°C° 0,8 mm 11 m/S 752 mmHg 84%
    12:00 +12°C° 0,8 mm 12 m/S 751 mmHg 82%
    13:00 +13°C° 0,8 mm 12 m/S 750 mmHg 81%
    14:00 +12°C° 0,9 mm 12 m/S 750 mmHg 81%
    15:00 +12°C° 0,9 mm 12 m/S 749 mmHg 81%
    16:00 +10°C° 0,9 mm 12 m/S 749 mmHg 81%
    17:00 +9°C° 0,7 mm 12 m/S 750 mmHg 79%
    18:00 +9°C° 0,7 mm 13 m/S 750 mmHg 77%
    19:00 +8°C° 0,7 mm 13 m/S 750 mmHg 75%
    20:00 +7°C° 0,1 mm 13 m/S 752 mmHg 74%
    21:00 +6°C° 0,1 mm 14 m/S 753 mmHg 73%
    22:00 +5°C° 0,1 mm 14 m/S 754 mmHg 72%
    23:00 +4°C° 0 mm 13 m/S 755 mmHg 73%

    übermorgen, 18 Januar, Donnerstag

    Zeit Temperatur Niederschläge Wind Luftdruck Luftfeuchtigkeit
    00:00 +3°C° 0 mm 12 m/S 757 mmHg 74%
    01:00 +2°C° 0 mm 12 m/S 758 mmHg 76%
    02:00 +2°C° 0 mm 11 m/S 759 mmHg 73%
    03:00 +1°C° 0 mm 11 m/S 760 mmHg 70%
    04:00 -1°C° 0 mm 11 m/S 760 mmHg 67%
    05:00 0°C° 0 mm 9 m/S 761 mmHg 66%
    06:00 0°C° 0 mm 8 m/S 762 mmHg 65%
    07:00 0°C° 0 mm 7 m/S 763 mmHg 64%
    08:00 +2°C° 0 mm 6 m/S 763 mmHg 56%
    09:00 +5°C° 0 mm 5 m/S 764 mmHg 47%
    10:00 +6°C° 0 mm 5 m/S 764 mmHg 39%
    11:00 +7°C° 0 mm 4 m/S 764 mmHg 38%
    12:00 +9°C° 0 mm 3 m/S 764 mmHg 37%
    13:00 +10°C° 0 mm 3 m/S 764 mmHg 36%
    14:00 +9°C° 0 mm 2 m/S 764 mmHg 41%
    15:00 +9°C° 0 mm 2 m/S 764 mmHg 45%
    16:00 +8°C° 0 mm 2 m/S 764 mmHg 49%
    17:00 +7°C° 0 mm 2 m/S 764 mmHg 51%
    18:00 +5°C° 0 mm 3 m/S 764 mmHg 53%
    19:00 +4°C° 0 mm 3 m/S 765 mmHg 54%
    20:00 +4°C° 0 mm 4 m/S 764 mmHg 55%
    21:00 +3°C° 0 mm 5 m/S 764 mmHg 56%
    22:00 +3°C° 0 mm 6 m/S 764 mmHg 56%
    23:00 +3°C° 0 mm 6 m/S 764 mmHg 59%

    19 Januar, Freitag

    Zeit Temperatur Niederschläge Wind Luftdruck Luftfeuchtigkeit
    00:00 +3°C° 0 mm 6 m/S 764 mmHg 61%
    01:00 +3°C° 0 mm 7 m/S 763 mmHg 63%
    02:00 +3°C° 0 mm 7 m/S 763 mmHg 62%
    03:00 +3°C° 0 mm 6 m/S 762 mmHg 61%
    04:00 +4°C° 0 mm 6 m/S 762 mmHg 60%
    05:00 +4°C° 0 mm 6 m/S 762 mmHg 62%
    06:00 +4°C° 0 mm 6 m/S 761 mmHg 64%
    07:00 +4°C° 0 mm 6 m/S 761 mmHg 66%
    08:00 +5°C° 0 mm 6 m/S 761 mmHg 68%
    09:00 +7°C° 0 mm 6 m/S 761 mmHg 70%
    10:00 +8°C° 0 mm 6 m/S 761 mmHg 72%
    11:00 +9°C° 0 mm 7 m/S 761 mmHg 73%
    12:00 +10°C° 0 mm 7 m/S 760 mmHg 73%
    13:00 +10°C° 0 mm 7 m/S 760 mmHg 74%
    14:00 +10°C° 0 mm 7 m/S 759 mmHg 76%
    15:00 +10°C° 0 mm 7 m/S 759 mmHg 79%
    16:00 +10°C° 0 mm 8 m/S 759 mmHg 82%
    17:00 +9°C° 0 mm 8 m/S 759 mmHg 83%
    18:00 +9°C° 0 mm 8 m/S 759 mmHg 84%
    19:00 +7°C° 0 mm 9 m/S 759 mmHg 86%
    20:00 +7°C° 0 mm 9 m/S 759 mmHg 84%
    21:00 +7°C° 0 mm 9 m/S 759 mmHg 83%
    22:00 +6°C° 0 mm 9 m/S 758 mmHg 82%
    23:00 +6°C° 0 mm 9 m/S 758 mmHg 81%

    20 Januar, Samstag

    Zeit Temperatur Niederschläge Wind Luftdruck Luftfeuchtigkeit
    00:00 +6°C° 0 mm 10 m/S 758 mmHg 80%
    01:00 +6°C° 0 mm 10 m/S 757 mmHg 80%
    02:00 +6°C° 0,1 mm 10 m/S 757 mmHg 80%
    03:00 +6°C° 0,1 mm 10 m/S 756 mmHg 81%
    04:00 +6°C° 0,1 mm 10 m/S 756 mmHg 81%
    05:00 +6°C° 0,3 mm 10 m/S 755 mmHg 81%
    06:00 +6°C° 0,3 mm 10 m/S 755 mmHg 81%
    07:00 +6°C° 0,3 mm 11 m/S 755 mmHg 81%
    08:00 +8°C° 0,2 mm 11 m/S 754 mmHg 78%
    09:00 +9°C° 0,2 mm 11 m/S 754 mmHg 75%
    10:00 +11°C° 0,2 mm 11 m/S 753 mmHg 72%
    11:00 +11°C° 0,3 mm 11 m/S 753 mmHg 72%
    12:00 +12°C° 0,3 mm 11 m/S 752 mmHg 72%
    13:00 +12°C° 0,3 mm 12 m/S 751 mmHg 72%
    14:00 +12°C° 0,2 mm 11 m/S 750 mmHg 74%
    15:00 +11°C° 0,2 mm 11 m/S 750 mmHg 75%
    16:00 +11°C° 0,2 mm 10 m/S 749 mmHg 77%
    17:00 +11°C° 1,1 mm 10 m/S 748 mmHg 77%
    18:00 +9°C° 1,1 mm 11 m/S 748 mmHg 76%
    19:00 +9°C° 1,1 mm 11 m/S 747 mmHg 76%
    20:00 +9°C° 0,7 mm 11 m/S 746 mmHg 76%
    21:00 +8°C° 0,7 mm 11 m/S 745 mmHg 75%
    22:00 +8°C° 0,7 mm 11 m/S 745 mmHg 75%
    23:00 +8°C° 0,7 mm 10 m/S 744 mmHg 75%

    21 Januar, Sonntag

    Zeit Temperatur Niederschläge Wind Luftdruck Luftfeuchtigkeit
    00:00 +8°C° 0,7 mm 9 m/S 742 mmHg 76%
    01:00 +8°C° 0,7 mm 9 m/S 741 mmHg 77%
    02:00 +9°C° 0,5 mm 8 m/S 740 mmHg 78%
    03:00 +9°C° 0,5 mm 7 m/S 740 mmHg 79%
    04:00 +9°C° 0,5 mm 6 m/S 739 mmHg 80%
    05:00 +8°C° 0,4 mm 6 m/S 739 mmHg 80%
    06:00 +8°C° 0,4 mm 6 m/S 739 mmHg 80%
    07:00 +8°C° 0,4 mm 6 m/S 739 mmHg 81%
    08:00 +8°C° 1,1 mm 7 m/S 740 mmHg 83%
    09:00 +8°C° 1,1 mm 9 m/S 740 mmHg 85%
    10:00 +8°C° 1,1 mm 10 m/S 741 mmHg 86%
    11:00 +7°C° 0,7 mm 10 m/S 741 mmHg 88%
    12:00 +7°C° 0,7 mm 10 m/S 742 mmHg 89%
    13:00 +6°C° 0,7 mm 10 m/S 742 mmHg 90%
    14:00 +6°C° 0,5 mm 10 m/S 743 mmHg 89%
    15:00 +6°C° 0,5 mm 9 m/S 743 mmHg 89%
    16:00 +6°C° 0,5 mm 9 m/S 743 mmHg 88%
    17:00 +6°C° 0,4 mm 9 m/S 744 mmHg 88%
    18:00 +5°C° 0,4 mm 9 m/S 744 mmHg 89%
    19:00 +5°C° 0,4 mm 8 m/S 745 mmHg 89%
    20:00 +5°C° 0,9 mm 9 m/S 745 mmHg 89%
    21:00 +5°C° 0,9 mm 10 m/S 745 mmHg 88%
    22:00 +3°C° 0,9 mm 10 m/S 746 mmHg 88%
    23:00 +3°C° 1,2 mm 10 m/S 746 mmHg 86%
    Mehr zeigen